False Pass, AK

1:22 AM HDT on May 23, 2018 (GMT -0900)
False Pass

Weather History for PAKF - July, 2013

Change the Weather History Date:

Wednesday, July 3, 2013

  Actual Average (PACD) Record (PACD)
Temperature  
Mean Temperature 50 °F -  
Max Temperature 46 °F 54 °F 63 °F (1980)
Min Temperature 46 °F 44 °F 36 °F (1971)
Degree Days  
Heating Degree Days 16    
Moisture  
Dew Point 45 °F    
Average Humidity 88    
Maximum Humidity 100    
Minimum Humidity 76    
Precipitation  
Precipitation 0.08 in - - ()
Sea Level Pressure  
Sea Level Pressure 29.96 in    
Wind  
Wind Speed 16 mph (SE)    
Max Wind Speed 30 mph    
Max Gust Speed 41 mph    
Visibility 9 miles    
Events Rain    
Averages and records for this station are not official NWS values.
T = Trace of Precipitation, MM = Missing Value Source: NWS Daily Summary

Daily Weather History Graph

Daily Weather History Graph

Search for Another Location

Airport or City:

Astronomy

Jul. 03, 2013 Rise Set
Actual Time 5:22 AM HDT 10:33 PM HDT
Civil Twilight 4:26 AM HDT 11:28 PM HDT
Nautical Twilight 2:25 AM HDT 1:25 AM HDT
Astronomical Twilight Sun does not set Sun does not set
Moon 2:30 AM HDT (7/3) 6:37 PM HDT (7/3)
Length of Visible Light 19h 02m
Length of Day
17h 10m
Waning Crescent, 17% of the Moon is Illuminated
Jul 3
Waning Crescent
Jul 7
New
Jul 15
First Quarter
Jul 22
Full
Jul 29
Last Quarter

Hourly Weather History & Observations

Time (HDT) Temp. Windchill Dew Point Humidity Pressure Visibility Wind Dir Wind Speed Gust Speed Precip Events Conditions
12:01 AM 48.0 °F - 44.1 °F 86% 30.12 in 10.0 mi SE 16.1 mph 32.2 mph 0.00 in   Overcast
1:01 AM 51.1 °F - 44.1 °F 77% 30.13 in 10.0 mi SSE 23.0 mph 31.1 mph 0.01 in Rain Light Rain
2:01 AM 48.9 °F - 44.1 °F 83% 30.12 in 10.0 mi SE 17.3 mph 23.0 mph 0.02 in Rain Light Rain
3:01 AM 46.9 °F - 44.1 °F 90% 30.12 in 10.0 mi SE 21.9 mph 28.8 mph 0.01 in Rain Light Rain
3:43 AM 46.4 °F 38.3 °F 44.6 °F 93% 29.82 in 10.0 mi SE 23.0 mph 28.8 mph 0.00 in Rain Light Rain
3:53 AM 46.4 °F 38.5 °F 44.6 °F 93% 29.82 in 10.0 mi SE 21.9 mph 31.1 mph 0.00 in Rain Light Rain
4:01 AM 46.4 °F 38.7 °F 44.6 °F 93% 29.82 in 10.0 mi SE 20.7 mph 31.1 mph 0.02 in Rain Light Rain
4:36 AM 46.4 °F 39.2 °F 44.6 °F 93% 29.79 in 10.0 mi SSE 18.4 mph 32.2 mph 0.02 in Rain Light Rain
4:45 AM 46.9 °F - 43.0 °F 86% 30.07 in 10.0 mi SSE 28.8 mph 35.7 mph 0.02 in Rain Light Rain
5:01 AM 46.4 °F 38.5 °F 44.6 °F 93% 29.78 in 10.0 mi SSE 21.9 mph 39.1 mph 0.01 in Rain Light Rain
5:10 AM 46.4 °F 37.7 °F 44.6 °F 93% 29.78 in 10.0 mi SSE 26.5 mph 33.4 mph 0.01 in Rain Light Rain
5:20 AM 46.4 °F 37.5 °F 42.8 °F 87% 29.78 in 10.0 mi SSE 27.6 mph 39.1 mph 0.02 in Rain Light Rain
5:39 AM 46.9 °F - 43.0 °F 86% 30.05 in 10.0 mi South 21.9 mph 33.4 mph 0.02 in Rain Light Rain
6:01 AM 46.9 °F - 43.0 °F 86% 30.03 in 10.0 mi South 29.9 mph 39.1 mph 0.00 in   Overcast
6:10 AM 46.4 °F 38.5 °F 42.8 °F 87% 29.74 in 10.0 mi South 21.9 mph 41.4 mph 0.00 in Rain Light Rain
7:01 AM 46.9 °F - 43.0 °F 86% 30.05 in 10.0 mi Variable 3.5 mph 20.7 mph 0.00 in   Overcast
7:09 AM 46.4 °F 39.8 °F 42.8 °F 87% 29.76 in 10.0 mi East 16.1 mph 24.2 mph N/A   Overcast
8:01 AM 46.9 °F - 43.0 °F 86% 30.03 in 10.0 mi ESE 23.0 mph 32.2 mph N/A   Overcast
8:25 AM 46.4 °F 40.1 °F 42.8 °F 87% 29.76 in 10.0 mi SE 15.0 mph 25.3 mph N/A   Overcast
9:01 AM 48.0 °F - 43.0 °F 83% 30.04 in 10.0 mi Calm Calm - N/A   Overcast
10:01 AM 50.0 °F - 44.1 °F 80% 30.05 in 10.0 mi SE 17.3 mph 24.2 mph N/A   Overcast
10:22 AM 51.8 °F - 44.6 °F 76% 29.77 in 10.0 mi SE 17.3 mph 23.0 mph N/A   Overcast
10:35 AM 51.8 °F - 44.6 °F 76% 29.77 in 10.0 mi SE 15.0 mph 23.0 mph N/A   Overcast
11:01 AM 51.1 °F - 45.0 °F 80% 30.04 in 10.0 mi SE 15.0 mph 23.0 mph N/A   Overcast
11:50 AM 53.6 °F - 46.4 °F 77% 29.78 in 10.0 mi SE 12.7 mph 19.6 mph N/A   Overcast
12:01 PM 53.1 °F - 46.0 °F 77% 30.06 in 10.0 mi SSE 10.4 mph 19.6 mph N/A   Overcast
12:26 PM 53.6 °F - 46.4 °F 77% 29.79 in 10.0 mi SE 10.4 mph - N/A   Overcast
1:01 PM 52.0 °F - 46.0 °F 80% 30.07 in 10.0 mi ESE 8.1 mph 17.3 mph N/A   Overcast
2:01 PM 53.1 °F - 46.9 °F 80% 30.09 in 10.0 mi ESE 10.4 mph - N/A   Overcast
3:01 PM 53.1 °F - 46.0 °F 77% 30.10 in 10.0 mi SSE 9.2 mph 16.1 mph N/A   Overcast
4:01 PM 50.0 °F - 46.0 °F 86% 30.10 in 10.0 mi SSE 11.5 mph 19.6 mph N/A   Overcast
5:01 PM 51.8 °F - 46.4 °F 82% 29.83 in 10.0 mi Calm Calm - N/A   Overcast
6:01 PM 48.0 °F - 46.0 °F 93% 30.12 in 6.0 mi East 5.8 mph - N/A   Overcast
6:49 PM 48.2 °F - 46.4 °F 93% 29.85 in 10.0 mi Calm Calm - N/A   Overcast
7:01 PM 48.9 °F - 46.0 °F 90% 30.14 in 10.0 mi North 3.5 mph - N/A   Overcast
7:40 PM 48.2 °F - 46.4 °F 93% 29.87 in 10.0 mi Calm Calm - N/A   Overcast
8:01 PM 48.9 °F - 46.0 °F 90% 30.15 in 10.0 mi Calm Calm - N/A   Overcast
8:49 PM 46.4 °F 43.5 °F 46.4 °F 100% 29.89 in 6.0 mi East 5.8 mph - N/A   Overcast
8:58 PM 46.4 °F 42.4 °F 44.6 °F 93% 29.89 in 6.0 mi East 8.1 mph - N/A   Overcast
9:01 PM 46.9 °F - 45.0 °F 93% 30.17 in 6.0 mi East 8.1 mph - N/A   Overcast
9:11 PM 46.4 °F 43.5 °F 46.4 °F 100% 29.89 in 6.0 mi East 5.8 mph - N/A   Overcast
9:23 PM 46.4 °F 43.5 °F 46.4 °F 100% 29.89 in 7.0 mi East 5.8 mph - N/A   Overcast
9:40 PM 48.2 °F - 46.4 °F 93% 29.90 in 7.0 mi East 3.5 mph - N/A   Overcast
10:01 PM 48.0 °F - 46.0 °F 93% 30.18 in 7.0 mi East 5.8 mph - N/A   Overcast
10:47 PM 48.2 °F - 46.4 °F 93% 29.93 in 7.0 mi East 5.8 mph - N/A   Overcast
10:56 PM 46.4 °F 44.3 °F 44.6 °F 93% 29.93 in 9.0 mi NE 4.6 mph - N/A   Overcast
11:01 PM 46.9 °F - 45.0 °F 93% 30.21 in 10.0 mi ENE 4.6 mph - N/A   Overcast